Amsterdam, Netherlands

11:21 AM CEST on August 24, 2016 (GMT +0200)
Schiphol

Weather History for EHAM - January, 2013

Change the Weather History Date:

Tuesday, January 22, 2013

  Actual Average Record
Temperature  
Mean Temperature 23 °F -  
Max Temperature 27 °F 42 °F 48 °F (1997)
Min Temperature 19 °F 34 °F 19 °F (2013)
Degree Days  
Heating Degree Days 42    
Moisture  
Dew Point 21 °F    
Average Humidity 84    
Maximum Humidity 93    
Minimum Humidity 74    
Precipitation  
Precipitation 0.00 in - - ()
Sea Level Pressure  
Sea Level Pressure 29.68 in    
Wind  
Wind Speed 6 mph ()    
Max Wind Speed 9 mph    
Max Gust Speed -    
Visibility 4.2 miles    
Events      
Averages and records for this station are not official NWS values.
T = Trace of Precipitation, MM = Missing Value Source: Averaged Metar Reports

Daily Weather History Graph

Daily Weather History Graph

Search for Another Location

Airport or City:

Trip Planner

Search our weather history database for the weather conditions in past years. The results will help you decide how hot, cold, wet, or windy it might be!

Date:

Astronomy

Jan. 22, 2013 Rise Set
Actual Time 8:35 AM CET 5:09 PM CET
Civil Twilight 7:57 AM CET 5:48 PM CET
Nautical Twilight 7:15 AM CET 6:30 PM CET
Astronomical Twilight 6:35 AM CET 7:10 PM CET
Moon 1:15 PM CET (1/22) 4:48 AM CET (1/22)
Length of Visible Light 9h 50m
Length of Day
8h 33m
Waxing Gibbous, 80% of the Moon is Illuminated
Jan 22
Waxing Gibbous
Jan 27
Full
Feb 3
Last Quarter
Feb 10
New
Feb 17
First Quarter

Hourly Weather History & Observations

Time (CET) Temp. Windchill Dew Point Humidity Pressure Visibility Wind Dir Wind Speed Gust Speed Precip Events Conditions
12:25 AM 28.4 °F 22.2 °F 24.8 °F 86% 29.59 in 3.1 mi East 5.8 mph - N/A   Partly Cloudy
12:55 AM 28.4 °F 19.7 °F 24.8 °F 86% 29.59 in 3.1 mi East 9.2 mph - N/A   Partly Cloudy
1:00 AM 28 °F - 24 °F 77% 29.61 in 3 mi East 6.7 mph - -   Mist
1:25 AM 28.4 °F 21.2 °F 23.0 °F 80% 29.59 in 3.7 mi East 6.9 mph - N/A   Scattered Clouds
1:55 AM 26.6 °F 17.5 °F 23.0 °F 86% 29.59 in 4.3 mi East 9.2 mph - N/A   Scattered Clouds
2:25 AM 26.6 °F 19.1 °F 23.0 °F 86% 29.59 in 4.3 mi East 6.9 mph - N/A   Partly Cloudy
2:55 AM 26.6 °F 20.0 °F 23.0 °F 86% 29.59 in 4.3 mi East 5.8 mph - N/A   Partly Cloudy
3:25 AM 26.6 °F 18.2 °F 23.0 °F 86% 29.59 in 4.3 mi East 8.1 mph - N/A   Partly Cloudy
3:55 AM 26.6 °F 17.5 °F 23.0 °F 86% 29.62 in 3.7 mi East 9.2 mph - N/A   Partly Cloudy
4:00 AM 27 °F - 23 °F 79% 29.62 in 4 mi East 8.9 mph - -   Mist
4:25 AM 26.6 °F 19.1 °F 23.0 °F 86% 29.62 in 4.3 mi East 6.9 mph - N/A   Partly Cloudy
4:55 AM 26.6 °F 19.1 °F 23.0 °F 86% 29.62 in 3.7 mi ENE 6.9 mph - N/A   Partly Cloudy
5:25 AM 26.6 °F 20.0 °F 23.0 °F 86% 29.62 in 4.3 mi East 5.8 mph - N/A   Partly Cloudy
5:55 AM 26.6 °F 19.1 °F 23.0 °F 86% 29.62 in 4.3 mi East 6.9 mph - N/A   Partly Cloudy
6:25 AM 26.6 °F 17.5 °F 23.0 °F 86% 29.62 in 4.3 mi East 9.2 mph - N/A   Scattered Clouds
6:55 AM 26.6 °F 20.0 °F 23.0 °F 86% 29.62 in 4.3 mi ENE 5.8 mph - N/A   Mostly Cloudy
7:00 AM 27 °F - 23 °F 78% 29.65 in 4 mi ENE 6.7 mph - -   Mist
7:25 AM 26.6 °F 18.2 °F 23.0 °F 86% 29.62 in 5.0 mi East 8.1 mph - N/A   Mostly Cloudy
7:55 AM 26.6 °F 19.1 °F 23.0 °F 86% 29.65 in 4.3 mi East 6.9 mph - N/A   Scattered Clouds
8:25 AM 26.6 °F 19.1 °F 23.0 °F 86% 29.65 in 3.7 mi ENE 6.9 mph - N/A   Scattered Clouds
8:55 AM 26.6 °F 20.0 °F 23.0 °F 86% 29.65 in 3.7 mi East 5.8 mph - N/A   Partly Cloudy
9:25 AM 24.8 °F 17.9 °F 23.0 °F 93% 29.68 in 3.7 mi ENE 5.8 mph - N/A   Scattered Clouds
9:55 AM 26.6 °F 20.0 °F 23.0 °F 86% 29.68 in 3.1 mi ENE 5.8 mph - N/A   Mostly Cloudy
10:00 AM 26 °F - 22 °F 80% 29.71 in 4 mi ENE 6.7 mph - -   Mist
10:25 AM 24.8 °F 15.3 °F 21.2 °F 86% 29.68 in 3.7 mi ENE 9.2 mph - N/A   Scattered Clouds
10:55 AM 24.8 °F 17.9 °F 21.2 °F 86% 29.71 in 3.7 mi ENE 5.8 mph - N/A   Scattered Clouds
11:25 AM 24.8 °F 16.1 °F 21.2 °F 86% 29.71 in 4.3 mi ENE 8.1 mph - N/A   Scattered Clouds
11:55 AM 26.6 °F 19.1 °F 21.2 °F 80% 29.68 in 4.3 mi East 6.9 mph - N/A   Partly Cloudy
12:25 PM 26.6 °F 20.0 °F 21.2 °F 80% 29.68 in 4.3 mi East 5.8 mph - N/A   Unknown
12:55 PM 26.6 °F 19.1 °F 21.2 °F 80% 29.68 in 5.0 mi ENE 6.9 mph - N/A   Unknown
1:00 PM 27 °F - 22 °F 74% 29.71 in 5 mi East 6.7 mph - -   Mist
1:25 PM 26.6 °F 20.0 °F 21.2 °F 80% 29.68 in 5.0 mi ENE 5.8 mph - N/A   Unknown
1:55 PM 26.6 °F 20.0 °F 21.2 °F 80% 29.68 in 5.6 mi ENE 5.8 mph - N/A   Unknown
2:25 PM 26.6 °F 20.0 °F 21.2 °F 80% 29.68 in 5.0 mi ENE 5.8 mph - N/A   Unknown
2:55 PM 26.6 °F 20.0 °F 21.2 °F 80% 29.68 in 5.0 mi NE 5.8 mph - N/A   Unknown
3:25 PM 26.6 °F 19.1 °F 21.2 °F 80% 29.68 in 5.6 mi NE 6.9 mph - N/A   Unknown
3:55 PM 26.6 °F 19.1 °F 21.2 °F 80% 29.71 in 5.6 mi NE 6.9 mph - N/A   Unknown
4:00 PM 25 °F - 21 °F 77% 29.72 in 5 mi NE 6.7 mph - -   Mist
4:25 PM 24.8 °F 17.9 °F 19.4 °F 80% 29.71 in 5.0 mi ENE 5.8 mph - N/A   Unknown
4:55 PM 24.8 °F 17.9 °F 19.4 °F 80% 29.71 in 5.0 mi ENE 5.8 mph - N/A   Partly Cloudy
5:25 PM 23.0 °F 15.8 °F 19.4 °F 86% 29.74 in 5.0 mi NE 5.8 mph - N/A   Partly Cloudy
5:55 PM 23.0 °F 13.9 °F 19.4 °F 86% 29.74 in 5.0 mi ENE 8.1 mph - N/A   Partly Cloudy
6:25 PM 23.0 °F 13.9 °F 19.4 °F 86% 29.74 in 5.0 mi ENE 8.1 mph - N/A   Partly Cloudy
6:55 PM 21.2 °F 12.6 °F 17.6 °F 86% 29.74 in 4.3 mi ENE 6.9 mph - N/A   Partly Cloudy
7:00 PM 22 °F - 18 °F 79% 29.75 in 4 mi ENE 6.7 mph - -   Mist
7:25 PM 21.2 °F 12.6 °F 17.6 °F 86% 29.74 in 4.3 mi ENE 6.9 mph - N/A   Partly Cloudy
7:55 PM 21.2 °F 12.6 °F 17.6 °F 86% 29.74 in 4.3 mi ENE 6.9 mph - N/A   Partly Cloudy
8:25 PM 21.2 °F 11.7 °F 19.4 °F 93% 29.74 in 4.3 mi ENE 8.1 mph - N/A   Scattered Clouds
8:55 PM 21.2 °F 12.6 °F 17.6 °F 86% 29.77 in 4.3 mi ENE 6.9 mph - N/A   Mostly Cloudy
9:25 PM 21.2 °F 13.6 °F 17.6 °F 86% 29.77 in 3.7 mi ENE 5.8 mph - N/A   Mostly Cloudy
9:55 PM 21.2 °F 13.6 °F 17.6 °F 86% 29.77 in 3.7 mi East 5.8 mph - N/A   Mostly Cloudy
10:00 PM 20 °F - 18 °F 88% 29.78 in 3 mi East 4.5 mph - -   Mist
10:25 PM 19.4 °F 11.5 °F 17.6 °F 93% 29.77 in 3.7 mi East 5.8 mph - N/A   Mostly Cloudy
10:55 PM 19.4 °F 11.5 °F 17.6 °F 93% 29.77 in 3.7 mi ENE 5.8 mph - N/A   Partly Cloudy
11:25 PM 19.4 °F 10.4 °F 17.6 °F 93% 29.77 in 3.7 mi ENE 6.9 mph - N/A   Partly Cloudy
11:55 PM 19.4 °F 10.4 °F 17.6 °F 93% 29.77 in 3.7 mi East 6.9 mph - N/A   Partly Cloudy